This is the latest recevied weather packets stored in our database for station/object N9BLE. If no packets are shown the sender has not sent any weather packets the latest 10 day(s).
| Time | Temp. | Humidity | Pressure | Rain* | Wind** | Luminosity | Snow |
|---|---|---|---|---|---|---|---|
| 1777500101 | 10.56° C | 65% | 1018.4 hPa | 0 mm | - | 97 W/m² | - |
| 1777499798 | 10.56° C | 65% | 1018.4 hPa | 0 mm | - | 109 W/m² | - |
| 1777499494 | 10.56° C | 66% | 1018.1 hPa | 0 mm | - | 107 W/m² | - |
| 1777499193 | 10.56° C | 64% | 1018.3 hPa | 0 mm | - | 91 W/m² | - |
| 1777498889 | 10.56° C | 66% | 1018.2 hPa | 0 mm | - | 59 W/m² | - |
| 1777498586 | 10.56° C | 66% | 1018.3 hPa | 0 mm | - | 58 W/m² | - |
| 1777498281 | 10.56° C | 65% | 1018 hPa | 0 mm | - | 83 W/m² | - |
| 1777497981 | 11.11° C | 63% | 1018.2 hPa | 0 mm | - | 152 W/m² | - |
| 1777497676 | 11.11° C | 63% | 1017.9 hPa | 0 mm | - | 160 W/m² | - |
| 1777497373 | 12.22° C | 61% | 1018 hPa | 0 mm | - | 135 W/m² | - |
| 1777497068 | 11.67° C | 65% | 1018 hPa | 0 mm | - | 294 W/m² | - |
| 1777496765 | 11.11° C | 65% | 1018.3 hPa | 0 mm | - | 145 W/m² | - |
| 1777496462 | 11.11° C | 66% | 1018.2 hPa | 0 mm | - | 164 W/m² | - |
| 1777496159 | 11.11° C | 67% | 1018.1 hPa | 0 mm | - | 156 W/m² | - |
| 1777495855 | 11.67° C | 65% | 1018.1 hPa | 0 mm | - | 198 W/m² | - |
| 1777495551 | 11.11° C | 67% | 1018.2 hPa | 0 mm | - | 331 W/m² | - |
| 1777495246 | 11.11° C | 67% | 1018.2 hPa | 0 mm | - | 175 W/m² | - |
| 1777494945 | 11.67° C | 65% | 1018.3 hPa | 0 mm | - | 124 W/m² | - |
| 1777494641 | 12.22° C | 66% | 1018.1 hPa | 0 mm | - | 138 W/m² | - |
| 1777494339 | 12.78° C | 65% | 1018.1 hPa | 0 mm | - | 655 W/m² | - |
| 1777494035 | 12.22° C | 64% | 1018 hPa | 0 mm | - | 407 W/m² | - |
| 1777493735 | 12.22° C | 65% | 1017.9 hPa | 0 mm | - | 190 W/m² | - |
| 1777493431 | 13.33° C | 60% | 1018 hPa | 0 mm | - | 165 W/m² | - |
| 1777493126 | 12.78° C | 49% | 1018 hPa | 0 mm | - | 424 W/m² | - |
| 1777492824 | 12.22° C | 54% | 1018.1 hPa | 0 mm | - | 236 W/m² | - |
* Rain latest hour (hover to see other rain measurements)
** Current wind speed in m/s (hover to see current wind gust speed)